Regional Weather Roundup
Issued by NWS

Home | Current Version | Previous Version | Text Only | Print | Product List | Glossary On
Versions: 1 2 3 4 5 6 7 8 9 10 11 12 13 14 15 16 17 18 19 20 21 22 23 24 25 26 27
000
ASUS42 KFFC 280103
RWRGA
WEATHER ROUNDUP FOR GEORGIA
NATIONAL WEATHER SERVICE PEACHTREE CITY GA
900 PM EDT SAT AUG 27 2016

NOTE: "FAIR" INDICATES FEW OR NO CLOUDS BELOW 12,000 FEET WITH NO
SIGNIFICANT WEATHER AND/OR OBSTRUCTIONS TO VISIBILITY.

* = USE WITH CAUTION. THE STATIONS MARKED WITH AN ASTERISK MAY NOT
REPORT WEATHER SUCH AS PRECIPITATION, FOG, OR THUNDER AND ARE NOT
QUALITY CONTROLLED BY NWS.

THE REMARK "TC" DENOTES TEMPERATURE READING IN DEGREES CELSIUS.

GAZ001>058-280200-
NORTH GEORGIA

CITY           SKY/WX    TMP DP  RH WIND       PRES   REMARKS
ATLANTA        PTCLDY    86  68  54 E8        30.08R
ATHENS         CLEAR     81  74  79 CALM      30.09R
CHAMBLEE       CLEAR     84  70  62 CALM      30.09R
PEACHTREE CITY CLEAR     78  72  81 CALM      30.07R
ROME           CLEAR     84  71  65 NE3       30.06R
WEST ATLANTA   CLEAR     85  69  58 NE5       30.07R
GAINESVILLE    CLEAR     83  70  64 E5        30.14R
CARTERSVILLE   CLEAR     82  69  64 CALM      30.07R


CITY           SKY/WX    TMP DP  RH WIND       PRES   REMARKS
DALTON*        CLEAR     81  70  69 E3        30.09R
LAWRENCEVILLE* CLEAR     82  72  69 NE6       30.10R
MARIETTA       PTCLDY    84  71  65 VRB3      30.09R
CANTON*        CLEAR     82  63  51 CALM      30.13R
BLAIRSVILLE*     N/A    N/A N/A N/A MISG      30.18R
$$

GAZ059>098-102>109-280200-
CENTRAL GEORGIA

CITY           SKY/WX    TMP DP  RH WIND       PRES   REMARKS
AUGUSTA-BUSH   CLEAR     82  70  66 S3        30.05R
AUGUSTA-DANIEL CLEAR     90  68  48 E7        30.07R HX  94
COLUMBUS       CLEAR     87  63  44 CALM      30.01R
MACON          CLEAR     82  62  50 E7        30.04R
ROBINS AFB     CLEAR     80  69  70 NE2       30.03R


CITY           SKY/WX    TMP DP  RH WIND       PRES   REMARKS
LAGRANGE*      CLEAR     80  70  72 CALM      30.04R
MILLEDGEVILLE* CLEAR     82  70  65 CALM      30.06R
$$

GAZ099>101-110>166-280200-
SOUTH GEORGIA

CITY           SKY/WX    TMP DP  RH WIND       PRES   REMARKS
SAVANNAH       PTCLDY    80  73  79 E6        30.06R
VALDOSTA       CLOUDY    82  74  76 NE9       30.00R
ALMA           CLEAR     81  71  71 E5        30.04R
ST SIMONS      PTCLDY    82  75  79 E8        30.02R
FT STEWART     CLEAR     80  73  78 CALM      30.03R
ALBANY         CLOUDY    86  69  56 CALM      30.02R HX  90
HUNTER AFB     CLEAR     80  77  90 E5        30.03R
MOODY AFB      CLOUDY    81  71  69 E6        30.00R
BRUNSWICK      CLEAR     77  77 100 NE6       30.03R


CITY           SKY/WX    TMP DP  RH WIND       PRES   REMARKS
BAINBRIDGE*    CLOUDY    84  72  65 CALM      30.00R
MOULTRIE*      CLOUDY    81  73  78 CALM      30.01R
VIDALIA*       CLEAR     82  72  69 E6        30.06R
WAYCROSS*        N/A     82  78  88 E3        30.03R HX  90
DOUGLAS*       PTCLDY    81  72  74 SE5       30.05R
$$




USA.gov is the U.S. government's official web portal to all federal, state and local government web resources and services.